Clarksville, TN

5:41 PM CDT on April 25, 2017 (GMT -0500)
Outlaw

Weather History for KCKV - October, 2011

Change the Weather History Date:

Saturday, October 15, 2011

  Actual Average Record
Temperature  
Mean Temperature 60 °F 59 °F  
Max Temperature 71 °F 72 °F 89 °F (1950)
Min Temperature 48 °F 47 °F 30 °F (2006)
Degree Days  
Heating Degree Days 5 7  
Month to date heating degree days 50 74  
Since 1 July heating degree days 85 103  
Cooling Degree Days 0 1  
Month to date cooling degree days 10 21  
Year to date cooling degree days 1420  
Growing Degree Days 10 (Base 50)    
Moisture  
Dew Point 37 °F    
Average Humidity 53    
Maximum Humidity 80    
Minimum Humidity 25    
Precipitation  
Precipitation 0.00 in 0.13 in 1.42 in (1954)
Month to date precipitation 0.13 1.93  
Year to date precipitation 38.59  
Sea Level Pressure  
Sea Level Pressure 30.05 in    
Wind  
Wind Speed 6 mph (West)    
Max Wind Speed 20 mph    
Max Gust Speed 24 mph    
Visibility 10 miles    
Events      
T = Trace of Precipitation, MM = Missing Value Source: NWS Daily Summary

Daily Weather History Graph

Daily Weather History Graph

Search for Another Location

Airport or City:

Trip Planner

Search our weather history database for the weather conditions in past years. The results will help you decide how hot, cold, wet, or windy it might be!

Date:

Astronomy

Oct. 15, 2011 Rise Set
Actual Time 6:56 AM CDT 6:13 PM CDT
Civil Twilight 6:30 AM CDT 6:39 PM CDT
Nautical Twilight 6:00 AM CDT 7:09 PM CDT
Astronomical Twilight 5:30 AM CDT 7:39 PM CDT
Moon 8:16 PM CDT (10/15) 10:14 AM CDT (10/15)
Length of Visible Light 12h 08m
Length of Day
11h 16m
Waning Gibbous, 89% of the Moon is Illuminated
Oct 15
Waning Gibbous
Oct 19
Last Quarter
Oct 26
New
Nov 2
First Quarter
Nov 10
Full

Hourly Weather History & Observations

Time (CDT) Temp. Dew Point Humidity Pressure Visibility Wind Dir Wind Speed Gust Speed Precip Events Conditions
12:52 AM 59.0 °F 41.0 °F 51% 29.96 in 10.0 mi West 5.8 mph - N/A   Clear
1:52 AM 57.9 °F 39.0 °F 49% 29.98 in 10.0 mi NW 8.1 mph - N/A   Clear
2:52 AM 57.9 °F 36.0 °F 44% 30.00 in 10.0 mi NW 8.1 mph - N/A   Clear
3:52 AM 57.0 °F 37.0 °F 47% 30.00 in 10.0 mi NW 4.6 mph - N/A   Clear
4:52 AM 55.0 °F 37.0 °F 51% 30.02 in 10.0 mi WSW 4.6 mph - N/A   Clear
5:52 AM 52.0 °F 39.0 °F 61% 30.04 in 10.0 mi WSW 3.5 mph - N/A   Clear
6:52 AM 50.0 °F 39.0 °F 66% 30.05 in 10.0 mi WSW 5.8 mph - N/A   Clear
7:52 AM 52.0 °F 39.9 °F 63% 30.06 in 10.0 mi WSW 5.8 mph - N/A   Clear
9:52 AM 62.1 °F 37.9 °F 41% 30.10 in 10.0 mi WNW 10.4 mph - N/A   Clear
11:52 AM 66.9 °F 34.0 °F 30% 30.09 in 10.0 mi West 15.0 mph 19.6 mph N/A   Clear
12:52 PM 68.0 °F 34.0 °F 28% 30.09 in 10.0 mi West 15.0 mph - N/A   Clear
1:52 PM 69.1 °F 35.1 °F 29% 30.07 in 10.0 mi WNW 10.4 mph 20.7 mph N/A   Clear
2:52 PM 70.0 °F 34.0 °F 27% 30.05 in 10.0 mi WNW 10.4 mph - N/A   Clear
3:52 PM 71.1 °F 34.0 °F 26% 30.06 in 10.0 mi West 11.5 mph - N/A   Clear
4:52 PM 69.1 °F 33.1 °F 26% 30.06 in 10.0 mi WSW 11.5 mph - N/A   Clear
5:52 PM 66.0 °F 34.0 °F 30% 30.06 in 10.0 mi West 4.6 mph - N/A   Clear
7:52 PM 53.1 °F 37.9 °F 57% 30.08 in 10.0 mi Calm Calm - N/A   Clear
8:52 PM 52.0 °F 39.9 °F 63% 30.07 in 10.0 mi Calm Calm - N/A   Clear
9:52 PM 51.1 °F 41.0 °F 68% 30.07 in 10.0 mi Calm Calm - N/A   Clear
10:52 PM 48.9 °F 42.1 °F 77% 30.07 in 7.0 mi Calm Calm - N/A   Clear
11:52 PM 48.0 °F 41.0 °F 77% 30.07 in 10.0 mi Calm Calm - N/A   Clear